Regional Weather Roundup
Issued by NWS

Home | Current Version | Previous Version | Graphics & Text | Print | Product List | Glossary On
Versions: 1 2 3 4 5 6 7 8 9 10 11 12 13 14 15 16 17 18 19 20 21 22 23 24 25 26 27 28 29 30 31 32 33 34 35 36 37 38 39 40 41 42 43 44 45 46 47 48 49 50
000
ASUS43 KMKX 210621
RWRWI

WISCONSIN REGIONAL WEATHER ROUNDUP
NATIONAL WEATHER SERVICE MILWAUKEE/SULLIVAN WI
100 AM CDT TUE APR 21 2015

NOTE: "FAIR" INDICATES FEW OR NO CLOUDS BELOW 12,000 FEET WITH NO
SIGNIFICANT WEATHER AND/OR OBSTRUCTIONS TO VISIBILITY.

WIZ001-002-006>008-014>016-023>028-210700-
NORTHWEST WISCONSIN

CITY           SKY/WX    TMP DP  RH WIND       PRES   REMARKS
SUPERIOR ARPT  CLOUDY    35  30  84 W12       29.40R WCI  26
6HR MIN TEMP:  34; 6HR MAX TEMP:  36;

ASHLAND        CLOUDY    34  32  92 W12G20    29.35S WCI  25
6HR MIN TEMP:  33; 6HR MAX TEMP:  38; 6HR PCP: TRACE;

HAYWARD        LGT SNOW  33  30  88 W8        29.39F FOG     WCI  26
6HR MIN TEMP:  33; 6HR MAX TEMP:  38; 6HR PCP: TRACE;

SIREN          FLURRIES  33  32  96 W12G17    29.46S WCI  24
6HR MIN TEMP:  33; 6HR MAX TEMP:  38;

CUMBERLAND     LGT SNOW  32  30  93 W13G22    29.44S WCI  22
RICE LAKE      FLURRIES  34  31  91 W12       29.46S WCI  25
6HR MIN TEMP:  34; 6HR MAX TEMP:  38;

CHETEK         CLOUDY    34  31  89 W13       29.45S WCI  25
6HR MIN TEMP:  34; 6HR MAX TEMP:  38;

LADYSMITH      LGT SNOW  34  32  94 W10       29.43S WCI  26
6HR MIN TEMP:  34; 6HR MAX TEMP:  39;

EAU CLAIRE     CLOUDY    36  29  75 W15G23    29.47S WCI  27
6HR MIN TEMP:  36; 6HR MAX TEMP:  40; 6HR PCP: TRACE;

MENOMONIE      CLOUDY    36  31  81 W13G22    29.49R WCI  28
6HR MIN TEMP:  36; 6HR MAX TEMP:  41;

NEW RICHMOND   LGT SNOW  33  30  87 W15       29.50S WCI  23
6HR MIN TEMP:  33; 6HR MAX TEMP:  40;

OSCEOLA        CLOUDY    35  30  81 W14G25    29.53R WCI  26
6HR MIN TEMP:  35; 6HR MAX TEMP:  41;

$$

WIZ003>005-009-010-017-018-210700-
NORTH CENTRAL WISCONSIN

CITY           SKY/WX    TMP DP  RH WIND       PRES   REMARKS
MANITOWISH WTR LGT SNOW  31  31  99 W7        29.32F WCI  25
6HR MIN TEMP:  31; 6HR MAX TEMP:  35;

ARBOR VITAE    CLOUDY    33  30  89 W9        29.33F WCI  25
6HR MIN TEMP:  33; 6HR MAX TEMP:  37;

WOODRUFF       CLOUDY    33  30  89 W9        29.33F WCI  25
6HR MIN TEMP:  33; 6HR MAX TEMP:  37;

RHINELANDER    CLOUDY    33  27  78 W14G22    29.35F WCI  23
6HR MIN TEMP:  33; 6HR MAX TEMP:  36; 6HR PCP:  0.01;

EAGLE RIVER    CLOUDY    32  27  82 W9        29.31F WCI  24
6HR MIN TEMP:  32; 6HR MAX TEMP:  35;

LAND O LAKES   FLURRIES  32  29  89 W6        29.31S WCI  27
6HR MIN TEMP:  32; 6HR MAX TEMP:  35;

PHILLIPS       FLURRIES  32  30  92 W8        29.37S WCI  25
6HR MIN TEMP:  32; 6HR MAX TEMP:  37;

TOMAHAWK       FLURRIES  32  28  83 CALM      29.38S
6HR MIN TEMP:  32; 6HR MAX TEMP:  36;

MEDFORD        FLURRIES  32  30  92 W8G17     29.40S WCI  25
6HR MIN TEMP:  32; 6HR MAX TEMP:  37;

MERRILL        CLOUDY    34  30  85 W12G18    29.39S WCI  25
6HR MIN TEMP:  34; 6HR MAX TEMP:  38;

$$

WIZ029-030-035-036-043>047-210700-
CENTRAL WISCONSIN

CITY           SKY/WX    TMP DP  RH WIND       PRES   REMARKS
WAUSAU         CLOUDY    35  29  78 W14       29.39S WCI  26
6HR MIN TEMP:  35; 6HR MAX TEMP:  38;

MOSINEE        LGT SNOW  34  32  93 W10       29.43S WCI  26
MARSHFIELD     CLOUDY    35  30  82 W13       29.43S WCI  26
6HR MIN TEMP:  35; 6HR MAX TEMP:  38; 6HR PCP: TRACE;

STEVENS POINT  DRIZZLE   34  30  87 W9G17     29.44S WCI  26
6HR MIN TEMP:  34; 6HR MAX TEMP:  37; 6HR PCP:  0.03;

WAUPACA        DRIZZLE   40  30  67 SW10      29.44F WCI  34
6HR MIN TEMP:  40; 6HR MAX TEMP:  42;

WAUTOMA        CLOUDY    40  30  67 W16G22    29.47S WCI  31
6HR MIN TEMP:  40; 6HR MAX TEMP:  41;

WISC RAPIDS    CLOUDY    37  27  67 W16G22    29.46S WCI  28
6HR MIN TEMP:  37; 6HR MAX TEMP:  40; 6HR PCP: TRACE;

CAMP DOUGLAS   DRIZZLE   37  37 100 W13       29.48S WCI  29
6HR MIN TEMP:  37; 6HR MAX TEMP:  41; 6HR PCP: TRACE;

$$

WIZ011>013-019>022-031-037>040-048>050-210700-
NORTHEAST WISCONSIN

CITY           SKY/WX    TMP DP  RH WIND       PRES   REMARKS
ANTIGO         CLOUDY    33  29  83 W16       29.37S WCI  23
SHAWANO        CLOUDY    40  29  65 SW7       29.42S WCI  35
6HR MIN TEMP:  39; 6HR MAX TEMP:  41;

OCONTO         CLOUDY    38  29  69 SW7       29.41S WCI  32
6HR MIN TEMP:  38; 6HR MAX TEMP:  41;

STURGEON BAY   CLOUDY    39  27  60 W13G22    29.42F WCI  32
6HR MIN TEMP:  39; 6HR MAX TEMP:  41;

GREEN BAY      CLOUDY    41  29  62 SW10      29.44S
6HR MIN TEMP:  40; 6HR MAX TEMP:  42; 6HR PCP: TRACE;

MANITOWOC      CLOUDY    41  30  65 W10       29.46S
6HR MIN TEMP:  41; 6HR MAX TEMP:  43;

APPLETON       CLOUDY    37  28  70 SW9G21    29.45S WCI  31
CLINTONVILLE   CLOUDY    37  28  70 SW7       29.43S WCI  32
OSHKOSH        CLOUDY    40  29  64 SW8       29.46F WCI  34
6HR MIN TEMP:  40; 6HR MAX TEMP:  42;

$$

WIZ032>034-041-042-053>061-210700-
SOUTHWEST WISCONSIN

CITY           SKY/WX    TMP DP  RH WIND       PRES   REMARKS
LA CROSSE      CLOUDY    41  31  67 W15       29.52F
6HR MIN TEMP:  41; 6HR MAX TEMP:  44;

SPARTA         CLOUDY    38  32  77 W7        29.51S WCI  33
6HR MIN TEMP:  38; 6HR MAX TEMP:  42;

VIROQUA        CLOUDY    37  32  82 W16       29.52S WCI  27
6HR MIN TEMP:  37; 6HR MAX TEMP:  40;

BOSCOBEL       MOCLDY    42  30  62 W16G24    29.57S
6HR MIN TEMP:  42; 6HR MAX TEMP:  45; 6HR PCP: TRACE;

PRAIRIE DU CHI MOCLDY    40  30  67 W10       29.59S WCI  34
6HR MIN TEMP:  40; 6HR MAX TEMP:  44;

PLATTEVILLE    FAIR      39  32  76 W15G23    29.59R WCI  30
6HR MIN TEMP:  38; 6HR MAX TEMP:  44;

$$

WIZ056-057-062-063-064-067-068-210700-
SOUTH CENTRAL WISCONSIN

CITY           SKY/WX    TMP DP  RH WIND       PRES   REMARKS
REEDSBURG      CLOUDY    38  31  75 W13G23    29.51S WCI  30
6HR MIN TEMP:  38; 6HR MAX TEMP:  42;

BARABOO/DELLS  MOCLDY    38  30  73 W13       29.50F WCI  30
6HR MIN TEMP:  38; 6HR MAX TEMP:  41;

LONE ROCK      CLOUDY    41  31  67 W15G23    29.54S
6HR MIN TEMP:  39; 6HR MAX TEMP:  44; 6HR PCP:  0.02;

MINERAL POINT  FAIR      39  32  75 W14       29.55S WCI  31
MADISON        CLOUDY    41  30  65 VRB7      29.53F
6HR MIN TEMP:  40; 6HR MAX TEMP:  43;

MIDDLETON      MOCLDY    41  31  66 W12       29.53F
6HR MIN TEMP:  40; 6HR MAX TEMP:  44;

WATERTOWN      MOCLDY    39  31  72 W14G21    29.52S WCI  31
6HR MIN TEMP:  39; 6HR MAX TEMP:  42;

MONROE         MOCLDY    37  32  81 SW18      29.57S WCI  27
JANESVILLE     CLOUDY    41  32  70 SW13      29.56S
$$

WIZ051-052-058>065-066-070>072-210700-
SOUTHEAST WISCONSIN

CITY           SKY/WX    TMP DP  RH WIND       PRES   REMARKS
MILWAUKEE      CLOUDY    43  28  55 SW12      29.54S
6HR MIN TEMP:  43; 6HR MAX TEMP:  45; 6HR PCP: TRACE;

WAUKESHA       CLOUDY    37  30  75 SW12      29.54S WCI  30
MILWAUKEE/TIMM CLOUDY    41  28  60 W9        29.53S
RACINE         CLOUDY    43  31  62 SW13G20   29.56S
6HR MIN TEMP:  43; 6HR MAX TEMP:  44;

BURLINGTON     CLOUDY    39  31  72 W10       29.55F WCI  32
6HR MIN TEMP:  39; 6HR MAX TEMP:  42;

KENOSHA        CLOUDY    42  32  67 W17       29.56S
6HR MIN TEMP:  41; 6HR MAX TEMP:  44;

FOND DU LAC    CLOUDY    40  28  62 SW10      29.48F WCI  33
6HR MIN TEMP:  40; 6HR MAX TEMP:  42; 6HR PCP: TRACE;

SHEBOYGAN      CLOUDY    40  30  67 W10       29.48R WCI  33
6HR MIN TEMP:  40; 6HR MAX TEMP:  42;

WEST BEND      CLOUDY    39  28  65 SW9       29.50S WCI  33
JUNEAU         FAIR      38  30  73 SW14G20   29.51F WCI  30
6HR MIN TEMP:  38; 6HR MAX TEMP:  40;

$$

LSZ147-162-210700-
LAKE SUPERIOR

STATION/POSITION TIME  TEMP    WIND        PRES    WAVE
                       AIR SEA DIR/SP/G            HT/PER
                 (UTC) (F)     (DEG/KT/KT) (MB)    (FT/S)
DEVILS ISLAND    0600   36     250/ 20/ 25  992.9S
PORT WING        0500   37     250/ 15/ 22  994.6
SAXON HARBOR     0540   35     220/  3/ 11  993.6S
$$

LMZ867-665-643>646-210700-
LAKE MICHIGAN

STATION/POSITION TIME  TEMP    WIND        PRES    WAVE
                       AIR SEA DIR/SP/G            HT/PER


USA.gov is the U.S. government's official web portal to all federal, state and local government web resources and services.